EHI
10 8 7 5 3 2 1 0 0 0 0 0 0 0 0 0 0 1 2 3 4 6 7 6 5 3 2 3 4 5 5 5 6 6 6 4 2 1 2 2 1 0 0
10 9 8 6 4 4 2 1 0 0 0 0 0 0 0 0 0 0 1 3 5 7 7 6 5 3 2 1 2 3 4 5 6 6 6 5 3 1 1 1 0 0 0
8 9 9 7 5 4 3 1 0 0 0 0 0 0 0 1 1 1 2 4 6 7 7 6 6 4 3 1 1 2 2 3 3 3 4 5 4 1 0 0 0 0 0
6 7 8 8 6 4 3 2 1 0 0 0 0 0 0 1 2 3 4 5 6 7 7 7 6 6 4 2 1 0 0 0 1 1 2 3 3 2 0 0 0 0 0
5 4 5 5 4 4 4 4 3 1 1 1 1 0 0 1 1 2 4 6 7 7 8 7 6 5 3 2 1 0 0 0 0 0 0 2 2 1 0 0 0 0 0
3 2 2 2 3 3 4 5 5 4 3 3 1 0 1 1 0 1 2 4 6 7 7 7 6 4 3 2 0 0 0 1 0 0 0 1 2 2 1 1 1 1 1
1 1 2 1 2 3 4 5 6 6 5 4 3 2 2 1 0 0 1 2 4 5 6 6 5 3 3 2 1 0 0 0 0 0 0 1 2 3 3 2 2 2 2
0 1 1 1 1 4 5 6 6 6 5 4 5 4 2 1 0 0 0 1 3 4 6 6 4 3 3 3 2 1 0 0 0 0 0 0 1 2 3 2 2 2 1
1 1 1 0 1 3 6 7 7 6 5 5 5 5 3 1 0 0 0 0 2 4 6 6 4 3 3 3 3 2 1 0 0 0 0 0 0 1 1 1 1 1 0
2 2 2 1 1 2 4 6 7 7 6 6 6 6 5 3 1 0 0 1 2 4 5 5 4 3 2 2 3 3 2 0 1 1 1 0 0 0 0 0 0 0 0
2 2 2 2 2 2 3 5 7 8 7 7 7 6 6 6 3 1 0 1 3 5 6 5 4 2 1 0 1 2 2 1 1 2 2 1 0 0 0 0 0 0 0
1 1 1 2 2 2 3 5 7 9 9 8 7 7 7 7 5 1 0 0 2 4 6 5 3 1 0 0 0 1 1 0 1 2 2 2 1 1 0 0 0 0 0
1 0 0 1 1 1 2 3 4 6 8 8 8 6 6 8 7 4 2 1 0 2 4 3 1 0 0 0 0 0 0 0 0 1 1 1 2 1 0 0 0 0 0
1 1 1 1 1 0 0 1 1 2 4 6 6 5 5 7 9 8 6 3 0 1 1 1 0 0 0 0 0 0 0 0 0 0 0 1 1 1 0 0 0 0 1
2 2 2 2 1 0 0 0 0 1 2 2 3 4 5 6 7 7 7 4 1 0 0 1 1 1 1 1 2 1 0 0 0 0 0 0 0 0 0 0 0 1 1
1 1 2 1 1 1 0 0 0 0 0 0 1 2 4 4 4 3 3 2 1 0 1 2 2 2 2 2 3 3 2 1 0 0 0 0 0 0 0 0 0 1 1
0 0 0 0 0 1 2 2 2 1 0 0 0 1 2 2 2 1 0 0 0 0 1 2 3 3 3 2 2 2 3 2 1 0 0 0 0 0 0 0 0 0 0
0 0 0 0 0 1 2 4 4 3 2 1 1 0 1 1 1 0 0 0 0 0 0 1 2 3 3 1 1 2 4 3 1 0 0 0 0 0 0 0 0 0 0
0 0 0 0 0 0 1 3 3 3 3 4 2 1 0 0 0 0 0 0 0 0 0 0 0 1 2 1 2 3 4 4 2 1 0 0 0 0 0 0 0 0 0
0 0 0 0 0 0 0 1 1 1 2 3 2 1 1 1 1 0 0 0 0 0 0 0 0 0 0 1 3 3 3 3 2 1 1 1 1 0 0 0 1 1 1
0 0 0 0 0 0 0 0 0 0 1 1 1 1 1 2 2 1 0 0 0 0 0 0 0 0 0 1 1 2 3 2 1 1 2 2 2 1 1 1 1 2 2
0 0 0 0 0 0 0 0 0 0 0 0 0 0 1 2 2 1 0 0 0 0 0 0 0 0 1 0 0 1 1 2 1 1 2 2 3 3 2 2 2 3 3
0 1 1 1 0 0 0 0 0 0 0 0 0 0 0 1 1 0 0 0 0 0 0 0 0 0 0 0 0 0 1 2 2 2 2 3 3 3 3 3 3 3 3
1 2 2 2 1 0 0 0 0 0 0 0 0 0 0 0 0 0 0 0 0 0 0 0 0 0 0 0 0 0 0 1 1 2 2 2 2 2 2 3 3 3 3
2 3 3 3 1 0 0 0 0 0 0 0 0 0 0 0 0 0 0 0 0 0 0 0 0 0 0 0 0 0 0 0 0 1 1 1 1 1 1 1 2 2 2
3 3 3 3 2 1 0 0 0 0 0 0 0 0 0 0 0 0 0 0 0 0 0 0 0 0 0 0 0 0 0 0 0 0 0 0 0 0 0 0 1 1 1
Wind_Speed
4 4 3 3 3 3 3 3 3 2 3 3 3 2 3 3 2 2 2 2 2 2 2 2 2 2 1 1 1 1 2 2 3 2 2 2 2 2 2 2 2 2 2
4 4 3 3 3 3 3 3 3 3 3 3 3 2 3 2 2 3 3 2 2 2 2 2 2 2 2 1 1 2 2 2 2 3 2 1 2 2 2 2 2 2 2
3 3 3 2 3 3 3 3 2 2 2 2 3 3 3 2 2 3 3 3 3 3 3 3 3 2 2 2 2 2 2 2 2 2 2 1 1 1 2 2 2 2 2
3 3 3 4 4 4 3 3 3 3 3 3 3 3 4 3 3 3 3 3 3 3 3 3 3 3 4 3 2 2 2 1 1 1 2 2 1 1 1 1 2 1 2
3 3 4 3 3 3 3 3 3 3 3 3 3 3 3 3 3 3 3 3 3 3 3 3 4 4 4 3 2 2 2 2 1 2 2 1 1 1 2 1 2 2 2
3 3 2 2 3 3 3 3 3 3 3 3 3 3 3 3 2 4 4 3 3 3 4 3 4 3 4 5 4 4 4 3 3 3 2 3 3 3 2 2 1 1 2
2 2 1 2 3 3 3 2 3 3 3 3 2 3 3 3 3 3 4 3 3 3 3 3 3 2 2 2 3 3 4 5 6 4 4 4 4 4 3 3 3 3 3
2 2 2 2 2 2 2 2 2 2 3 3 2 3 3 2 2 2 3 3 2 3 3 3 3 3 2 2 2 2 3 4 5 5 5 5 5 3 4 3 3 3 3
2 2 3 3 3 3 3 3 2 2 2 3 3 3 3 2 2 2 2 2 2 3 3 2 3 3 3 2 2 3 4 4 4 5 5 5 5 4 3 2 2 2 3
2 2 2 3 3 4 4 3 2 2 2 2 2 3 3 2 2 3 3 2 2 2 2 2 3 4 3 3 3 3 4 5 3 3 3 4 4 4 5 5 4 3 3
2 1 2 2 3 3 3 3 2 2 2 1 2 2 2 3 3 3 4 3 3 3 3 3 3 4 4 4 4 3 5 4 3 3 3 3 2 2 3 4 4 4 4
1 1 2 2 1 1 1 1 2 2 2 1 1 2 2 2 3 3 5 5 4 3 3 3 3 3 3 3 3 3 4 3 2 2 2 3 3 3 3 4 5 5 5
0 1 1 1 0 1 1 1 1 1 2 2 2 2 2 2 2 4 4 5 5 4 3 3 3 2 2 2 3 3 2 1 2 2 3 4 4 4 3 2 3 3 4
0 1 1 0 0 0 0 1 1 2 2 2 2 3 3 2 2 2 2 2 3 3 3 3 3 2 1 2 2 2 2 2 3 4 4 4 3 2 2 2 2 2 2
1 0 0 0 1 0 0 1 2 3 3 3 3 3 3 3 4 4 2 2 2 2 1 1 1 1 1 1 1 2 2 2 3 3 3 3 3 3 3 2 2 2 3
1 1 0 0 0 1 1 1 1 2 2 3 4 4 3 5 4 4 4 4 3 2 2 1 2 2 3 3 3 3 2 3 3 3 3 3 4 4 3 2 2 3 3
0 1 0 0 1 1 1 1 2 2 2 2 2 3 4 4 4 4 3 2 1 3 2 2 3 3 3 3 3 3 4 3 3 3 4 4 4 3 3 3 3 3 3
1 1 1 0 0 1 1 1 1 2 2 2 2 3 3 3 3 3 2 1 0 1 2 3 3 3 4 4 4 4 4 3 3 3 4 4 4 4 3 3 3 4 3
2 1 1 1 0 0 1 1 1 1 2 2 2 2 2 2 1 1 1 1 2 2 3 3 3 4 4 4 4 4 4 4 3 3 3 4 4 4 4 4 3 4 4
2 4 2 1 1 1 1 1 1 1 2 2 2 3 1 1 1 1 1 1 2 3 3 3 3 3 3 3 4 4 4 4 4 3 4 4 4 4 4 4 3 3 3
2 3 4 2 1 1 1 1 1 1 2 2 3 3 2 1 2 2 2 2 3 3 4 3 3 3 3 3 3 4 4 4 3 3 3 4 4 4 3 3 3 3 3
2 2 2 1 2 2 2 1 1 2 2 3 3 3 3 2 2 2 2 3 3 3 3 3 3 3 3 4 4 4 4 4 4 4 3 3 3 3 3 3 3 3 3
1 1 2 2 2 2 2 2 2 2 2 2 3 3 2 2 2 2 3 3 3 3 3 3 3 3 4 3 4 4 5 5 4 4 4 3 3 3 3 3 4 4 3
1 1 2 2 2 2 2 2 2 2 2 3 3 3 2 2 3 3 3 3 3 3 3 3 3 5 6 4 4 3 3 4 4 4 5 4 4 3 3 3 4 5 4
1 1 2 2 2 2 2 2 2 3 3 3 3 3 2 3 3 3 3 3 4 4 4 3 3 4 5 6 5 4 4 4 3 3 3 3 3 4 4 4 4 4 4
1 1 1 1 2 2 2 2 2 3 3 3 3 3 3 3 3 4 4 4 4 4 4 3 4 5 5 5 6 5 4 3 3 3 2 2 3 3 4 4 5 4 4
Wind_Direction
190 194 195 196 192 190 205 217 217 209 194 195 201 196 198 196 190 186 205 196 204 235 244 236 254 252 252 251 230 221 224 214 245 282 282 300 292 288 294 271 254 249 249
195 185 194 196 184 190 210 215 205 199 196 197 194 200 211 199 187 185 204 204 212 231 243 241 262 255 253 257 238 238 237 222 225 266 286 294 279 280 284 277 272 258 254
183 177 182 195 199 210 218 213 199 192 193 192 187 197 212 208 199 201 204 210 219 230 236 239 251 246 249 247 239 241 246 239 224 245 277 282 283 306 307 293 281 282 264
180 185 200 213 215 219 216 209 200 192 194 199 200 205 209 208 206 208 208 213 226 235 236 240 245 236 238 239 237 242 243 242 232 242 272 283 281 296 287 285 296 294 288
179 204 223 222 214 213 204 206 204 199 207 206 203 212 215 209 214 209 214 220 226 240 249 249 248 241 235 230 233 230 221 219 227 243 256 261 267 264 258 253 274 299 283
180 203 218 207 205 211 212 205 200 206 208 202 208 213 222 230 229 214 206 222 227 236 253 264 260 249 248 240 234 221 203 203 216 224 236 245 250 241 235 235 247 284 284
179 194 199 207 210 217 218 207 206 212 206 210 217 217 223 233 225 214 208 210 229 241 247 259 269 271 247 250 251 240 233 228 214 211 227 239 241 233 218 226 227 235 250
187 202 213 217 229 220 203 211 215 205 203 212 217 224 225 238 222 213 208 209 230 243 242 242 249 262 265 248 249 256 259 253 236 226 231 239 241 229 211 223 232 246 265
205 219 218 213 217 215 210 217 213 200 214 216 208 215 219 241 235 224 209 218 239 256 256 248 242 249 270 239 224 255 272 274 256 241 244 255 257 242 202 184 204 225 260
240 240 226 210 208 215 217 214 206 200 218 223 226 218 212 229 232 221 210 218 244 263 270 260 246 252 261 224 220 238 262 274 283 285 275 277 267 253 216 208 210 221 242
253 253 246 228 216 215 210 204 195 194 198 213 232 243 231 236 244 231 214 218 235 251 262 269 266 261 253 241 226 235 251 264 273 269 275 280 276 259 239 229 222 217 225
284 271 261 242 232 213 186 191 184 180 185 213 240 278 275 257 247 243 228 228 231 233 249 259 267 267 254 248 241 261 265 262 266 268 267 269 267 265 259 247 240 236 238
308 300 282 260 234 162 160 173 173 180 197 226 234 254 276 281 271 257 240 237 235 231 251 258 262 265 263 265 270 267 255 249 252 258 262 265 262 264 264 257 245 241 246
223 283 315 340 325 8 151 190 188 200 209 223 232 245 260 271 275 272 261 248 243 243 260 276 275 277 269 282 297 277 249 239 238 252 264 272 277 268 255 250 247 237 242
27 352 18 162 183 99 7 242 222 221 210 213 231 231 242 259 261 247 236 246 236 229 223 262 297 306 290 281 276 272 266 255 250 260 265 270 270 267 265 253 242 238 237
55 325 275 193 209 208 217 311 306 250 243 228 228 228 246 249 262 252 239 244 243 204 165 225 246 248 252 256 261 265 257 254 256 259 259 261 264 265 270 264 245 239 248
315 300 311 202 197 218 230 243 294 329 335 302 272 256 245 260 269 263 249 235 219 160 183 235 246 250 253 252 252 256 260 258 253 251 256 258 260 263 265 266 261 255 255
324 327 340 289 238 235 247 254 258 269 295 311 307 293 280 272 275 274 245 136 62 194 236 247 250 252 254 257 257 257 260 260 254 253 255 258 256 257 260 262 260 261 261
334 333 336 330 307 243 256 264 276 278 276 288 310 324 318 313 332 324 158 187 236 248 250 254 255 254 256 259 261 259 259 259 257 253 255 258 258 257 258 259 259 260 261
351 358 357 350 341 346 338 329 321 311 311 311 306 302 321 14 349 319 238 242 256 264 262 262 262 262 263 264 264 264 263 262 261 258 261 259 255 251 256 258 256 257 256
360 2 10 12 358 358 0 349 331 327 330 323 315 317 300 288 291 295 292 275 269 274 277 276 276 277 275 275 271 269 267 265 263 264 262 258 256 257 259 255 252 251 256
9 5 7 9 7 11 6 358 353 349 336 325 322 330 329 308 296 295 293 289 283 276 275 272 273 273 272 272 274 274 270 271 270 264 260 259 259 260 258 257 262 262 255
7 2 355 355 1 5 2 356 346 338 330 327 325 326 327 318 314 308 301 300 302 299 290 281 281 288 288 283 276 267 263 263 261 255 250 250 252 255 255 256 257 260 257
348 345 340 345 353 356 351 342 340 338 336 330 323 318 313 312 313 311 308 306 303 303 304 296 288 294 301 301 291 282 281 283 277 258 248 246 247 245 242 249 256 256 252
340 338 340 342 343 339 339 339 340 342 340 332 324 322 320 319 315 311 310 309 307 306 308 306 304 304 311 310 307 304 302 295 282 274 259 248 249 251 250 250 254 258 256
351 343 333 332 337 331 329 328 326 328 327 324 323 322 321 318 317 317 318 316 312 309 310 310 314 315 317 313 308 308 305 303 296 282 264 251 248 251 253 253 253 255 253